This is the latest recevied weather packets stored in our database for station/object KC3ULW-13. If no packets are shown the sender has not sent any weather packets the latest 10 day(s).
| Time | Temp. | Humidity | Pressure | Rain* | Wind** | Luminosity | Snow |
|---|---|---|---|---|---|---|---|
| 1777571904 | 9.44° C | 68% | 1016 hPa | 0 mm | - | 216 W/m² | - |
| 1777571599 | 9.44° C | 67% | 1016 hPa | 0 mm | - | 294 W/m² | - |
| 1777571297 | 9.44° C | 68% | 1016.3 hPa | 0 mm | - | 298 W/m² | - |
| 1777570992 | 8.89° C | 69% | 1016 hPa | 0 mm | - | 274 W/m² | - |
| 1777570689 | 8.89° C | 69% | 1016 hPa | 0 mm | - | 227 W/m² | - |
| 1777570385 | 8.89° C | 69% | 1016 hPa | 0 mm | - | 256 W/m² | - |
| 1777570080 | 8.89° C | 70% | 1016 hPa | 0 mm | - | 223 W/m² | - |
| 1777569776 | 8.89° C | 70% | 1015.9 hPa | 0 mm | - | 187 W/m² | - |
| 1777569472 | 8.89° C | 69% | 1016 hPa | 0 mm | - | 110 W/m² | - |
| 1777569169 | 8.89° C | 70% | 1016 hPa | 0 mm | - | 259 W/m² | - |
| 1777568865 | 8.89° C | 70% | 1016 hPa | 0 mm | - | 293 W/m² | - |
| 1777568563 | 8.89° C | 72% | 1016 hPa | 0 mm | - | 255 W/m² | - |
| 1777568259 | 8.33° C | 73% | 1016 hPa | 0 mm | - | 192 W/m² | - |
| 1777567956 | 8.33° C | 73% | 1016.2 hPa | 0 mm | - | 138 W/m² | - |
| 1777567652 | 8.33° C | 73% | 1016 hPa | 0 mm | - | 99 W/m² | - |
| 1777567350 | 8.33° C | 72% | 1016 hPa | 0 mm | - | 78 W/m² | - |
| 1777567048 | 8.33° C | 72% | 1016.1 hPa | 0 mm | - | 123 W/m² | - |
| 1777566745 | 8.33° C | 73% | 1016.1 hPa | 0 mm | - | 182 W/m² | - |
| 1777566443 | 8.33° C | 74% | 1016 hPa | 0 mm | - | 162 W/m² | - |
| 1777566140 | 8.33° C | 74% | 1015.8 hPa | 0 mm | - | 150 W/m² | - |
| 1777565835 | 8.33° C | 76% | 1016 hPa | 0 mm | - | 137 W/m² | - |
| 1777565532 | 8.33° C | 77% | 1015.9 hPa | 0 mm | - | 114 W/m² | - |
| 1777565228 | 8.33° C | 78% | 1015.9 hPa | 0 mm | - | 145 W/m² | - |
| 1777564925 | 8.33° C | 78% | 1015.8 hPa | 0 mm | - | 104 W/m² | - |
| 1777564620 | 7.78° C | 78% | 1015.9 hPa | 0 mm | - | 135 W/m² | - |
* Rain latest hour (hover to see other rain measurements)
** Current wind speed in m/s (hover to see current wind gust speed)